Location: Newark
(45.4422°N, 16.2769°E)
Time: 17:52:49
(UTC+00:00)

Tiros 1 despin weight - Pass Details

Date: 17 December 2019
Orbit: 593 x 643 km, 48.2° (Epoch: 20 January)

Event Time Altitude Azimuth Distance (km) Brightness Sun altitude
Rises 06:46:26 0° 290° (WNW) 2,869 ? 1.7°
Reaches altitude 10° 06:48:48 10° 285° (WNW) 1,954 ? 2.0°
Maximum altitude 06:53:07 49° 211° (SSW) 777 ? 2.6°
Drops below altitude 10° 06:57:22 10° 136° (SE) 1,925 ? 3.2°
Sets 06:59:41 0° 131° (SE) 2,820 ? 3.5°
